• In Belarus
  • List of Countries
  • For 7 days
  • Water Temperature
  • Satellite Maps
  • Weather Map
  • Weather Widgets
  • user-avatar
    Login

    Hourly Weather Vanadzor

    Today, 24 April, Wednesday

    Time Temperature Precipitation Wind Pressure Humidity
    00:00 +1°C° 0 mm 1 mps 639 mmHg 92%
    01:00 +1°C° 0 mm 1 mps 639 mmHg 92%
    02:00 0°C° 0 mm 1 mps 639 mmHg 92%
    03:00 -1°C° 0 mm 0 mps 639 mmHg 91%
    04:00 -1°C° 0 mm 0 mps 639 mmHg 89%
    05:00 0°C° 0 mm 0 mps 639 mmHg 86%
    06:00 0°C° 0 mm 0 mps 640 mmHg 83%
    07:00 +3°C° 0 mm 1 mps 640 mmHg 76%
    08:00 +5°C° 0 mm 1 mps 640 mmHg 70%
    09:00 +6°C° 0 mm 1 mps 641 mmHg 63%
    10:00 +7°C° 0 mm 1 mps 640 mmHg 62%
    11:00 +8°C° 0 mm 1 mps 640 mmHg 61%
    12:00 +9°C° 0 mm 1 mps 640 mmHg 59%
    13:00 +9°C° 0.1 mm 1 mps 639 mmHg 60%
    14:00 +9°C° 0.1 mm 1 mps 639 mmHg 61%
    15:00 +9°C° 0.1 mm 1 mps 639 mmHg 63%
    16:00 +8°C° 0.3 mm 1 mps 638 mmHg 68%
    17:00 +8°C° 0.3 mm 1 mps 638 mmHg 73%
    18:00 +7°C° 0.3 mm 1 mps 638 mmHg 78%
    19:00 +5°C° 0.2 mm 0 mps 638 mmHg 81%
    20:00 +4°C° 0.2 mm 0 mps 638 mmHg 84%
    21:00 +3°C° 0.2 mm 0 mps 639 mmHg 88%
    22:00 +4°C° 0.5 mm 1 mps 639 mmHg 90%
    23:00 +4°C° 0.5 mm 1 mps 639 mmHg 91%

    Tomorrow, 25 April, Thursday

    Time Temperature Precipitation Wind Pressure Humidity
    00:00 +4°C° 0.5 mm 1 mps 639 mmHg 93%
    01:00 +3°C° 0.4 mm 1 mps 639 mmHg 94%
    02:00 +3°C° 0.4 mm 1 mps 639 mmHg 95%
    03:00 +2°C° 0.4 mm 1 mps 639 mmHg 95%
    04:00 +2°C° 0.1 mm 1 mps 639 mmHg 95%
    05:00 +2°C° 0.1 mm 1 mps 639 mmHg 94%
    06:00 +2°C° 0.1 mm 1 mps 639 mmHg 94%
    07:00 +3°C° 0 mm 1 mps 639 mmHg 88%
    08:00 +5°C° 0 mm 1 mps 639 mmHg 83%
    09:00 +6°C° 0 mm 1 mps 640 mmHg 77%
    10:00 +7°C° 0 mm 1 mps 640 mmHg 73%
    11:00 +8°C° 0 mm 1 mps 639 mmHg 68%
    12:00 +9°C° 0 mm 1 mps 639 mmHg 64%
    13:00 +8°C° 0.2 mm 2 mps 639 mmHg 63%
    14:00 +8°C° 0.2 mm 2 mps 639 mmHg 62%
    15:00 +9°C° 0.2 mm 2 mps 639 mmHg 61%
    16:00 +8°C° 0.1 mm 2 mps 638 mmHg 66%
    17:00 +7°C° 0.1 mm 2 mps 638 mmHg 71%
    18:00 +7°C° 0.1 mm 2 mps 638 mmHg 75%
    19:00 +6°C° 0 mm 1 mps 638 mmHg 79%
    20:00 +5°C° 0 mm 1 mps 638 mmHg 83%
    21:00 +3°C° 0 mm 1 mps 638 mmHg 87%
    22:00 +3°C° 0 mm 1 mps 638 mmHg 88%
    23:00 +3°C° 0 mm 1 mps 638 mmHg 88%

    Day after tomorrow, 26 April, Friday

    Time Temperature Precipitation Wind Pressure Humidity
    00:00 +2°C° 0 mm 1 mps 638 mmHg 89%
    01:00 +2°C° 0 mm 1 mps 638 mmHg 90%
    02:00 +2°C° 0 mm 1 mps 638 mmHg 91%
    03:00 +2°C° 0 mm 1 mps 638 mmHg 92%
    04:00 +1°C° 0 mm 0 mps 638 mmHg 92%
    05:00 +2°C° 0 mm 0 mps 639 mmHg 91%
    06:00 +2°C° 0 mm 0 mps 639 mmHg 91%
    07:00 +5°C° 0 mm 1 mps 639 mmHg 84%
    08:00 +6°C° 0 mm 1 mps 639 mmHg 77%
    09:00 +7°C° 0 mm 2 mps 639 mmHg 69%
    10:00 +8°C° 0 mm 2 mps 639 mmHg 66%
    11:00 +9°C° 0 mm 2 mps 639 mmHg 64%
    12:00 +10°C° 0 mm 2 mps 639 mmHg 61%
    13:00 +10°C° 0.1 mm 2 mps 638 mmHg 62%
    14:00 +10°C° 0.1 mm 2 mps 638 mmHg 63%
    15:00 +10°C° 0.1 mm 2 mps 638 mmHg 64%
    16:00 +9°C° 0.1 mm 2 mps 637 mmHg 69%
    17:00 +8°C° 0.1 mm 2 mps 637 mmHg 73%
    18:00 +8°C° 0.1 mm 2 mps 637 mmHg 78%
    19:00 +7°C° 0 mm 1 mps 637 mmHg 83%
    20:00 +6°C° 0 mm 1 mps 637 mmHg 87%
    21:00 +4°C° 0 mm 1 mps 637 mmHg 92%
    22:00 +4°C° 0 mm 1 mps 637 mmHg 92%
    23:00 +4°C° 0 mm 1 mps 637 mmHg 93%

    27 April, Saturday

    Time Temperature Precipitation Wind Pressure Humidity
    00:00 +3°C° 0 mm 1 mps 637 mmHg 93%
    01:00 +3°C° 0 mm 1 mps 637 mmHg 93%
    02:00 +3°C° 0 mm 1 mps 637 mmHg 93%
    03:00 +3°C° 0 mm 1 mps 637 mmHg 93%
    04:00 +3°C° 0 mm 1 mps 637 mmHg 92%
    05:00 +3°C° 0 mm 1 mps 637 mmHg 91%
    06:00 +4°C° 0 mm 1 mps 637 mmHg 90%
    07:00 +6°C° 0 mm 1 mps 638 mmHg 82%
    08:00 +8°C° 0 mm 1 mps 638 mmHg 73%
    09:00 +9°C° 0 mm 1 mps 638 mmHg 65%
    10:00 +10°C° 0 mm 1 mps 638 mmHg 63%
    11:00 +10°C° 0 mm 2 mps 638 mmHg 61%
    12:00 +12°C° 0 mm 2 mps 638 mmHg 59%
    13:00 +12°C° 0.3 mm 2 mps 638 mmHg 60%
    14:00 +12°C° 0.3 mm 2 mps 637 mmHg 60%
    15:00 +12°C° 0.3 mm 2 mps 637 mmHg 61%
    16:00 +10°C° 0.3 mm 2 mps 637 mmHg 66%
    17:00 +11°C° 0.3 mm 1 mps 636 mmHg 71%
    18:00 +10°C° 0.3 mm 1 mps 636 mmHg 75%
    19:00 +8°C° 0 mm 1 mps 636 mmHg 80%
    20:00 +7°C° 0 mm 1 mps 636 mmHg 85%
    21:00 +4°C° 0 mm 0 mps 636 mmHg 89%
    22:00 +4°C° 0 mm 0 mps 636 mmHg 90%
    23:00 +3°C° 0 mm 0 mps 636 mmHg 91%

    28 April, Sunday

    Time Temperature Precipitation Wind Pressure Humidity
    00:00 +3°C° 0 mm 0 mps 636 mmHg 92%
    01:00 +3°C° 0 mm 0 mps 635 mmHg 92%
    02:00 +3°C° 0 mm 0 mps 635 mmHg 92%
    03:00 +4°C° 0 mm 1 mps 635 mmHg 92%
    04:00 +4°C° 0 mm 1 mps 635 mmHg 88%
    05:00 +4°C° 0 mm 1 mps 635 mmHg 84%
    06:00 +5°C° 0 mm 1 mps 635 mmHg 80%
    07:00 +6°C° 0 mm 2 mps 636 mmHg 70%
    08:00 +9°C° 0 mm 2 mps 636 mmHg 61%
    09:00 +12°C° 0 mm 2 mps 636 mmHg 51%
    10:00 +13°C° 0 mm 2 mps 636 mmHg 49%
    11:00 +14°C° 0 mm 2 mps 636 mmHg 46%
    12:00 +15°C° 0 mm 2 mps 636 mmHg 44%
    13:00 +15°C° 0.1 mm 2 mps 636 mmHg 44%
    14:00 +15°C° 0.1 mm 2 mps 636 mmHg 43%
    15:00 +16°C° 0.1 mm 2 mps 635 mmHg 43%
    16:00 +15°C° 0.1 mm 2 mps 635 mmHg 50%
    17:00 +14°C° 0.1 mm 1 mps 635 mmHg 56%
    18:00 +13°C° 0.1 mm 1 mps 634 mmHg 63%
    19:00 +11°C° 0.1 mm 1 mps 634 mmHg 65%
    20:00 +9°C° 0.1 mm 1 mps 634 mmHg 68%
    21:00 +8°C° 0.1 mm 1 mps 634 mmHg 70%
    22:00 +7°C° 0 mm 1 mps 634 mmHg 70%
    23:00 +7°C° 0 mm 1 mps 634 mmHg 70%

    29 April, Monday

    Time Temperature Precipitation Wind Pressure Humidity
    00:00 +7°C° 0 mm 1 mps 634 mmHg 70%
    01:00 +6°C° 0 mm 1 mps 634 mmHg 70%
    02:00 +6°C° 0 mm 1 mps 634 mmHg 70%
    03:00 +6°C° 0 mm 1 mps 634 mmHg 69%
    04:00 +5°C° 0 mm 2 mps 634 mmHg 69%
    05:00 +6°C° 0 mm 2 mps 634 mmHg 69%
    06:00 +6°C° 0 mm 2 mps 634 mmHg 69%
    07:00 +8°C° 0 mm 2 mps 635 mmHg 63%
    08:00 +10°C° 0 mm 2 mps 636 mmHg 57%
    09:00 +14°C° 0 mm 2 mps 636 mmHg 52%
    10:00 +15°C° 0.1 mm 2 mps 636 mmHg 49%
    11:00 +15°C° 0.1 mm 2 mps 636 mmHg 47%
    12:00 +16°C° 0.1 mm 3 mps 636 mmHg 45%
    13:00 +16°C° 0.2 mm 2 mps 636 mmHg 45%
    14:00 +16°C° 0.2 mm 2 mps 636 mmHg 45%
    15:00 +16°C° 0.2 mm 2 mps 635 mmHg 45%
    16:00 +16°C° 0.2 mm 2 mps 635 mmHg 51%
    17:00 +15°C° 0.2 mm 1 mps 635 mmHg 58%
    18:00 +14°C° 0.2 mm 1 mps 635 mmHg 65%
    19:00 +12°C° 0.1 mm 1 mps 635 mmHg 70%
    20:00 +11°C° 0.1 mm 1 mps 634 mmHg 74%
    21:00 +9°C° 0.1 mm 1 mps 634 mmHg 79%
    22:00 +9°C° 0 mm 1 mps 634 mmHg 79%
    23:00 +8°C° 0 mm 1 mps 634 mmHg 80%
    Show more